TAP826 LPPT-LIMC

Flight info

Callsign TAP826
Flight time 2h 21m
Altitude 36000
Route ORVED DCT UREDI N870 PONEN DCT SEROX DCT VILAR DCT KARES DCT BISES DCT BCN DCT SALON DCT AGENA DCT BODEQ DCT LUMAS DCT NIBIK DCT NETUP DCT STP DCT RAPED DCT PIGOS DCT EKSID DCT NOSTA DCT NOPMU DCT EGHIN DCT ANAKI/N0356F180 P860 DEVOX
Aircraft A321/M-SDE3FGHIRWY/LB1

Departure

Time 2026-05-05 16:48
Airport Lisbon Humberto Delgado Airport (LPPT)

Arrival

Time 2026-05-05 19:10
Airport Milan Malpensa International Airport (LIMC)
Time Latitude Longitude Altitude Speed Heading
2026-05-05 16:16 38.78025 -9.12921 327 ft 0 kts 304°
2026-05-05 16:16 38.78024 -9.12921 327 ft 0 kts 304°
2026-05-05 16:22 38.78024 -9.12920 327 ft 0 kts 304°
2026-05-05 16:34 38.78013 -9.12899 326 ft 4 kts 303°
2026-05-05 16:34 38.78001 -9.12871 326 ft 4 kts 279°
2026-05-05 16:35 38.78003 -9.12840 326 ft 4 kts 232°
2026-05-05 16:35 38.78012 -9.12828 327 ft 3 kts 213°
2026-05-05 16:38 38.78005 -9.12834 326 ft 6 kts 213°
2026-05-05 16:38 38.77934 -9.12892 328 ft 19 kts 212°
2026-05-05 16:38 38.77818 -9.12990 328 ft 20 kts 217°
2026-05-05 16:38 38.77764 -9.13118 334 ft 14 kts 255°
2026-05-05 16:39 38.77743 -9.13237 337 ft 13 kts 258°
2026-05-05 16:39 38.77701 -9.13359 353 ft 17 kts 215°
2026-05-05 16:39 38.77601 -9.13419 349 ft 15 kts 202°
2026-05-05 16:39 38.77496 -9.13485 352 ft 21 kts 217°
2026-05-05 16:40 38.77368 -9.13517 347 ft 19 kts 170°
2026-05-05 16:40 38.77284 -9.13578 351 ft 14 kts 254°
2026-05-05 16:40 38.77263 -9.13692 356 ft 14 kts 259°
2026-05-05 16:40 38.77231 -9.13830 361 ft 16 kts 230°
2026-05-05 16:41 38.77137 -9.13895 356 ft 15 kts 203°
2026-05-05 16:41 38.77039 -9.13947 351 ft 16 kts 202°
2026-05-05 16:41 38.76937 -9.14002 353 ft 17 kts 203°
2026-05-05 16:41 38.76827 -9.14061 349 ft 18 kts 202°
2026-05-05 16:42 38.76714 -9.14122 344 ft 18 kts 203°
2026-05-05 16:42 38.76618 -9.14172 338 ft 13 kts 207°
2026-05-05 16:42 38.76602 -9.14257 335 ft 7 kts 289°
2026-05-05 16:42 38.76605 -9.14268 336 ft 0 kts 290°
2026-05-05 16:44 38.76625 -9.14324 334 ft 15 kts 297°
2026-05-05 16:44 38.76684 -9.14363 337 ft 9 kts 12°
2026-05-05 16:45 38.76741 -9.14336 337 ft 14 kts 23°
2026-05-05 16:45 38.77008 -9.14193 351 ft 39 kts 23°
2026-05-05 16:45 38.77053 -9.14169 353 ft 0 kts 23°
2026-05-05 16:47 38.77056 -9.14167 352 ft 3 kts 23°
2026-05-05 16:47 38.77262 -9.14059 363 ft 66 kts 22°
2026-05-05 16:47 38.77876 -9.13729 366 ft 123 kts 22°
2026-05-05 16:48 38.78804 -9.13222 402 ft 161 kts 28°
2026-05-05 16:48 38.79819 -9.12653 943 ft 160 kts 18°
2026-05-05 16:48 38.80848 -9.12084 1519 ft 161 kts 15°
2026-05-05 16:48 38.81866 -9.11465 2103 ft 168 kts 26°
2026-05-05 16:49 38.82926 -9.10674 2345 ft 188 kts 24°
2026-05-05 16:49 38.84117 -9.09770 2495 ft 209 kts 25°
2026-05-05 16:49 38.85445 -9.08754 2677 ft 235 kts 27°
2026-05-05 16:49 38.86904 -9.07628 3118 ft 250 kts 26°
2026-05-05 16:50 38.88401 -9.06465 3904 ft 253 kts 28°
2026-05-05 16:50 38.89743 -9.04960 4663 ft 263 kts 52°
2026-05-05 16:50 38.90604 -9.02886 5397 ft 269 kts 59°
2026-05-05 16:50 38.91405 -9.00708 6182 ft 271 kts 62°
2026-05-05 16:51 38.92214 -8.98507 6936 ft 273 kts 62°
2026-05-05 16:51 38.93033 -8.96289 7637 ft 276 kts 62°
2026-05-05 16:51 38.93867 -8.94040 8333 ft 280 kts 60°
2026-05-05 16:51 38.94716 -8.91769 9018 ft 284 kts 60°
2026-05-05 16:52 38.95577 -8.89470 9703 ft 288 kts 60°
2026-05-05 16:52 38.96438 -8.87161 10274 ft 295 kts 60°
2026-05-05 16:52 38.97360 -8.84696 10405 ft 317 kts 60°
2026-05-05 16:52 38.98348 -8.82056 10542 ft 337 kts 60°
2026-05-05 16:53 38.99375 -8.79299 10971 ft 346 kts 61°
2026-05-05 16:53 39.00419 -8.76481 11515 ft 351 kts 61°
2026-05-05 16:53 39.01474 -8.73626 12066 ft 355 kts 61°
2026-05-05 16:53 39.02544 -8.70729 12655 ft 360 kts 61°
2026-05-05 16:54 39.03616 -8.67825 13208 ft 365 kts 61°
2026-05-05 16:54 39.04714 -8.64849 13772 ft 370 kts 61°
2026-05-05 16:54 39.05831 -8.61825 14259 ft 375 kts 61°
2026-05-05 16:54 39.06956 -8.58778 14777 ft 379 kts 61°
2026-05-05 16:55 39.08092 -8.55702 15289 ft 382 kts 61°
2026-05-05 16:55 39.09248 -8.52599 15810 ft 385 kts 60°
2026-05-05 16:55 39.10405 -8.49502 16308 ft 389 kts 60°
2026-05-05 16:55 39.11584 -8.46347 16806 ft 392 kts 60°
2026-05-05 16:56 39.12772 -8.43166 17314 ft 395 kts 61°
2026-05-05 16:56 39.13969 -8.39957 17782 ft 398 kts 61°
2026-05-05 16:56 39.15177 -8.36716 18277 ft 401 kts 61°
2026-05-05 16:56 39.16374 -8.33497 18682 ft 405 kts 61°
2026-05-05 16:57 39.17593 -8.30206 19067 ft 408 kts 61°
2026-05-05 16:57 39.18820 -8.26883 19449 ft 411 kts 61°
2026-05-05 16:57 39.20053 -8.23540 19838 ft 414 kts 61°
2026-05-05 16:57 39.21295 -8.20177 20210 ft 416 kts 61°
2026-05-05 16:58 39.22529 -8.16831 20563 ft 419 kts 61°
2026-05-05 16:58 39.23788 -8.13410 20919 ft 422 kts 61°
2026-05-05 16:58 39.25047 -8.09985 21280 ft 424 kts 61°
2026-05-05 16:58 39.26318 -8.06524 21639 ft 427 kts 61°
2026-05-05 16:59 39.27592 -8.03048 21982 ft 429 kts 62°
2026-05-05 16:59 39.28875 -7.99544 22323 ft 432 kts 62°
2026-05-05 16:59 39.30160 -7.96027 22672 ft 435 kts 62°
2026-05-05 16:59 39.31453 -7.92482 23042 ft 437 kts 61°
2026-05-05 17:00 39.32754 -7.88919 23371 ft 440 kts 61°
2026-05-05 17:00 39.34068 -7.85322 23706 ft 443 kts 61°
2026-05-05 17:00 39.35370 -7.81750 24005 ft 446 kts 61°
2026-05-05 17:00 39.36694 -7.78114 24307 ft 448 kts 61°
2026-05-05 17:01 39.38026 -7.74451 24616 ft 450 kts 62°
2026-05-05 17:01 39.39363 -7.70768 24919 ft 453 kts 62°
2026-05-05 17:01 39.40703 -7.67069 25219 ft 455 kts 62°
2026-05-05 17:01 39.42048 -7.63349 25521 ft 457 kts 62°
2026-05-05 17:02 39.43401 -7.59609 25820 ft 460 kts 62°
2026-05-05 17:02 39.44761 -7.55843 26063 ft 463 kts 62°
2026-05-05 17:02 39.46113 -7.52103 26339 ft 466 kts 62°
2026-05-05 17:02 39.47492 -7.48285 26618 ft 468 kts 62°
2026-05-05 17:03 39.48877 -7.44442 26894 ft 471 kts 62°
2026-05-05 17:03 39.50260 -7.40582 27179 ft 473 kts 62°
2026-05-05 17:03 39.51643 -7.36715 27451 ft 475 kts 62°
2026-05-05 17:03 39.53018 -7.32875 27716 ft 477 kts 62°
2026-05-05 17:04 39.54418 -7.28963 27975 ft 479 kts 62°
2026-05-05 17:04 39.55822 -7.25031 28248 ft 481 kts 62°
2026-05-05 17:04 39.57233 -7.21075 28536 ft 484 kts 62°
2026-05-05 17:04 39.58651 -7.17098 28780 ft 486 kts 62°
2026-05-05 17:05 39.60073 -7.13104 29030 ft 488 kts 62°
2026-05-05 17:05 39.61504 -7.09081 29293 ft 490 kts 63°
2026-05-05 17:05 39.62915 -7.05106 29535 ft 492 kts 63°
2026-05-05 17:05 39.64351 -7.01059 29771 ft 494 kts 63°
2026-05-05 17:06 39.65799 -6.96969 29990 ft 495 kts 63°
2026-05-05 17:06 39.67220 -6.92949 30169 ft 497 kts 63°
2026-05-05 17:06 39.68661 -6.88859 30346 ft 499 kts 63°
2026-05-05 17:06 39.70109 -6.84742 30522 ft 500 kts 63°
2026-05-05 17:07 39.71553 -6.80638 30759 ft 500 kts 63°
2026-05-05 17:07 39.73006 -6.76503 30985 ft 501 kts 63°
2026-05-05 17:07 39.73962 -6.73778 31139 ft 501 kts 63°
2026-05-05 17:07 39.75878 -6.68305 31459 ft 501 kts 63°
2026-05-05 17:08 39.77318 -6.64190 31692 ft 500 kts 63°
2026-05-05 17:08 39.78762 -6.60055 31931 ft 500 kts 63°
2026-05-05 17:08 39.79714 -6.57328 32096 ft 500 kts 63°
2026-05-05 17:08 39.81159 -6.53192 32341 ft 500 kts 63°
2026-05-05 17:09 39.83064 -6.47731 32664 ft 500 kts 63°
2026-05-05 17:09 39.84037 -6.44935 32828 ft 500 kts 63°
2026-05-05 17:09 39.85453 -6.40859 33057 ft 501 kts 63°
2026-05-05 17:09 39.86882 -6.36716 33336 ft 500 kts 63°
2026-05-05 17:10 39.88285 -6.32570 33608 ft 499 kts 63°
2026-05-05 17:10 39.89668 -6.28410 33865 ft 499 kts 64°
2026-05-05 17:10 39.91037 -6.24251 34077 ft 498 kts 64°
2026-05-05 17:10 39.92384 -6.20145 34260 ft 498 kts 64°
2026-05-05 17:11 39.93750 -6.15988 34478 ft 498 kts 64°
2026-05-05 17:11 39.95119 -6.11830 34672 ft 497 kts 64°
2026-05-05 17:11 39.96485 -6.07692 34871 ft 497 kts 64°
2026-05-05 17:11 39.97856 -6.03547 35064 ft 497 kts 64°
2026-05-05 17:12 39.99209 -5.99459 35245 ft 496 kts 64°
2026-05-05 17:12 40.00581 -5.95312 35422 ft 496 kts 64°
2026-05-05 17:12 40.01947 -5.91169 35586 ft 496 kts 64°
2026-05-05 17:12 40.03313 -5.87018 35761 ft 496 kts 64°
2026-05-05 17:13 40.04657 -5.82921 35917 ft 496 kts 64°
2026-05-05 17:13 40.06011 -5.78783 35954 ft 494 kts 64°
2026-05-05 17:13 40.08706 -5.70522 35982 ft 492 kts 64°
2026-05-05 17:14 40.11372 -5.62337 35962 ft 493 kts 64°
2026-05-05 17:14 40.14054 -5.54083 35958 ft 491 kts 64°
2026-05-05 17:15 40.16699 -5.45896 35960 ft 491 kts 64°
2026-05-05 17:15 40.19359 -5.37663 35968 ft 491 kts 64°
2026-05-05 17:16 40.22018 -5.29410 35971 ft 491 kts 64°
2026-05-05 17:16 40.24668 -5.21146 35958 ft 492 kts 64°
2026-05-05 17:17 40.27295 -5.12922 35954 ft 492 kts 64°
2026-05-05 17:17 40.29934 -5.04635 35964 ft 493 kts 64°
2026-05-05 17:18 40.32582 -4.96312 35962 ft 493 kts 64°
2026-05-05 17:18 40.35211 -4.88039 35961 ft 495 kts 64°
2026-05-05 17:19 40.37860 -4.79688 35996 ft 496 kts 64°
2026-05-05 17:19 40.40504 -4.71312 35979 ft 497 kts 64°
2026-05-05 17:20 40.43137 -4.62922 35977 ft 497 kts 64°
2026-05-05 17:20 40.45754 -4.54559 35987 ft 498 kts 64°
2026-05-05 17:21 40.48383 -4.46119 35985 ft 499 kts 64°
2026-05-05 17:22 40.52310 -4.33468 35974 ft 499 kts 64°
2026-05-05 17:22 40.54940 -4.25006 35976 ft 500 kts 64°
2026-05-05 17:23 40.57562 -4.16520 35974 ft 499 kts 64°
2026-05-05 17:23 40.60164 -4.08047 35980 ft 500 kts 65°
2026-05-05 17:24 40.62757 -3.99588 35984 ft 500 kts 64°
2026-05-05 17:24 40.65360 -3.91085 35984 ft 499 kts 64°
2026-05-05 17:25 40.67939 -3.82635 35987 ft 499 kts 65°
2026-05-05 17:25 40.70524 -3.74124 35969 ft 500 kts 65°
2026-05-05 17:26 40.73109 -3.65589 35956 ft 501 kts 65°
2026-05-05 17:26 40.75673 -3.57088 35953 ft 501 kts 65°
2026-05-05 17:27 40.78252 -3.48540 35961 ft 501 kts 65°
2026-05-05 17:27 40.80804 -3.40030 35954 ft 501 kts 65°
2026-05-05 17:28 40.83367 -3.31460 35962 ft 501 kts 65°
2026-05-05 17:28 40.85770 -3.22791 35950 ft 504 kts 73°
2026-05-05 17:29 40.87530 -3.13869 35957 ft 503 kts 73°
2026-05-05 17:29 40.89294 -3.04912 35949 ft 502 kts 74°
2026-05-05 17:30 40.91046 -2.95969 35949 ft 502 kts 74°
2026-05-05 17:30 40.92786 -2.87073 35949 ft 503 kts 74°
2026-05-05 17:31 40.94533 -2.78085 35951 ft 503 kts 74°
2026-05-05 17:31 40.96268 -2.69117 35950 ft 503 kts 74°
2026-05-05 17:32 40.97995 -2.60133 35963 ft 503 kts 75°
2026-05-05 17:32 40.99707 -2.51210 35959 ft 503 kts 75°
2026-05-05 17:33 41.01426 -2.42209 35956 ft 503 kts 75°
2026-05-05 17:33 41.03113 -2.33261 35953 ft 503 kts 75°
2026-05-05 17:34 41.04819 -2.24255 35945 ft 503 kts 75°
2026-05-05 17:34 41.06504 -2.15314 35946 ft 502 kts 75°
2026-05-05 17:35 41.08193 -2.06313 35943 ft 502 kts 75°
2026-05-05 17:35 41.09874 -1.97308 35939 ft 503 kts 75°
2026-05-05 17:36 41.11545 -1.88297 35940 ft 503 kts 76°
2026-05-05 17:36 41.13193 -1.79327 35962 ft 503 kts 76°
2026-05-05 17:37 41.14849 -1.70321 35963 ft 502 kts 76°
2026-05-05 17:37 41.16502 -1.61314 35957 ft 501 kts 76°
2026-05-05 17:38 41.18137 -1.52296 35958 ft 501 kts 77°
2026-05-05 17:38 41.19756 -1.43323 35950 ft 502 kts 77°
2026-05-05 17:39 41.21376 -1.34298 35948 ft 502 kts 77°
2026-05-05 17:39 41.22993 -1.25290 35948 ft 503 kts 77°
2026-05-05 17:40 41.24619 -1.16261 35948 ft 503 kts 77°
2026-05-05 17:40 41.26236 -1.07196 35936 ft 503 kts 77°
2026-05-05 17:41 41.27831 -0.98180 35934 ft 504 kts 77°
2026-05-05 17:41 41.29429 -0.89082 35934 ft 504 kts 77°
2026-05-05 17:42 41.31026 -0.79983 35941 ft 505 kts 77°
2026-05-05 17:42 41.32601 -0.70927 35924 ft 505 kts 78°
2026-05-05 17:43 41.34172 -0.61815 35921 ft 505 kts 78°
2026-05-05 17:43 41.35343 -0.52654 35953 ft 502 kts 90°
2026-05-05 17:44 41.35319 -0.43389 35943 ft 500 kts 92°
2026-05-05 17:44 41.35249 -0.34177 35915 ft 497 kts 92°
2026-05-05 17:45 41.35179 -0.24948 35914 ft 497 kts 93°
2026-05-05 17:45 41.35098 -0.15751 35915 ft 496 kts 93°
2026-05-05 17:46 41.35004 -0.06610 35915 ft 496 kts 93°
2026-05-05 17:46 41.34904 0.02598 35905 ft 497 kts 94°
2026-05-05 17:47 41.34793 0.11788 35917 ft 497 kts 94°
2026-05-05 17:47 41.34676 0.20965 35886 ft 499 kts 94°
2026-05-05 17:48 41.34556 0.30229 35897 ft 500 kts 94°
2026-05-05 17:48 41.34433 0.39508 35894 ft 502 kts 94°
2026-05-05 17:49 41.34303 0.48812 35911 ft 502 kts 95°
2026-05-05 17:49 41.34153 0.58116 35921 ft 503 kts 94°
2026-05-05 17:50 41.34003 0.67371 35935 ft 503 kts 95°
2026-05-05 17:50 41.33843 0.76686 35918 ft 504 kts 95°
2026-05-05 17:51 41.33680 0.86011 35927 ft 504 kts 95°
2026-05-05 17:51 41.33510 0.95357 35932 ft 504 kts 95°
2026-05-05 17:52 41.33323 1.04616 35929 ft 503 kts 96°
2026-05-05 17:52 41.33127 1.13950 35933 ft 504 kts 96°
2026-05-05 17:53 41.32923 1.23275 35919 ft 504 kts 96°
2026-05-05 17:53 41.32724 1.32570 35925 ft 505 kts 96°
2026-05-05 17:54 41.32522 1.41910 35926 ft 505 kts 96°
2026-05-05 17:54 41.32307 1.51257 35928 ft 505 kts 96°
2026-05-05 17:55 41.32079 1.60543 35911 ft 505 kts 97°
2026-05-05 17:55 41.31838 1.69915 35911 ft 506 kts 97°
2026-05-05 17:56 41.31633 1.77710 35913 ft 507 kts 97°
2026-05-05 17:56 41.31344 1.88626 35920 ft 507 kts 97°
2026-05-05 17:57 41.31132 1.96436 35902 ft 507 kts 97°
2026-05-05 17:57 41.30862 2.05843 35904 ft 508 kts 97°
2026-05-05 17:58 41.31505 2.15255 35907 ft 516 kts 79°
2026-05-05 17:58 41.33170 2.24490 35944 ft 516 kts 79°
2026-05-05 17:59 41.34823 2.33788 35914 ft 515 kts 79°
2026-05-05 17:59 41.36447 2.43078 35922 ft 515 kts 79°
2026-05-05 18:00 41.38067 2.52378 35916 ft 514 kts 79°
2026-05-05 18:00 41.39678 2.61616 35914 ft 514 kts 79°
2026-05-05 18:01 41.41297 2.70905 35876 ft 514 kts 80°
2026-05-05 18:01 41.42893 2.80145 35898 ft 514 kts 80°
2026-05-05 18:02 41.44479 2.89432 35903 ft 513 kts 80°
2026-05-05 18:02 41.46066 2.98723 35911 ft 513 kts 80°
2026-05-05 18:03 41.47646 3.08007 35878 ft 513 kts 81°
2026-05-05 18:03 41.49204 3.17226 35891 ft 513 kts 81°
2026-05-05 18:04 41.50767 3.26513 35897 ft 513 kts 81°
2026-05-05 18:04 41.52322 3.35815 35933 ft 512 kts 81°
2026-05-05 18:05 41.53865 3.45111 35923 ft 512 kts 81°
2026-05-05 18:05 41.55391 3.54338 35902 ft 509 kts 81°
2026-05-05 18:06 41.56911 3.63565 35894 ft 509 kts 81°
2026-05-05 18:06 41.58419 3.72824 35891 ft 510 kts 81°
2026-05-05 18:07 41.59911 3.82050 35860 ft 510 kts 82°
2026-05-05 18:07 41.61414 3.91330 35889 ft 511 kts 82°
2026-05-05 18:08 41.62919 4.00622 35892 ft 511 kts 82°
2026-05-05 18:08 41.64403 4.09872 35894 ft 511 kts 82°
2026-05-05 18:09 41.65881 4.19168 35898 ft 511 kts 82°
2026-05-05 18:09 41.67358 4.28474 35874 ft 511 kts 82°
2026-05-05 18:10 41.68824 4.37795 35888 ft 511 kts 82°
2026-05-05 18:10 41.70281 4.47128 35920 ft 512 kts 82°
2026-05-05 18:11 41.71836 4.56369 35913 ft 515 kts 75°
2026-05-05 18:11 41.73204 4.60817 35886 ft 518 kts 63°
2026-05-05 18:11 41.75100 4.64917 35887 ft 518 kts 52°
2026-05-05 18:12 41.80177 4.71614 35885 ft 513 kts 31°
2026-05-05 18:12 41.86305 4.76419 35884 ft 509 kts 25°
2026-05-05 18:13 41.92503 4.81082 35905 ft 510 kts 25°
2026-05-05 18:13 41.98704 4.85773 35901 ft 511 kts 25°
2026-05-05 18:14 42.04858 4.90445 35900 ft 511 kts 25°
2026-05-05 18:14 42.11081 4.95162 35933 ft 511 kts 26°
2026-05-05 18:15 42.17258 4.99850 35898 ft 511 kts 25°
2026-05-05 18:15 42.23458 5.04578 35901 ft 512 kts 26°
2026-05-05 18:16 42.29621 5.09288 35926 ft 512 kts 26°
2026-05-05 18:16 42.35820 5.14042 35903 ft 512 kts 26°
2026-05-05 18:17 42.42016 5.18804 35905 ft 512 kts 26°
2026-05-05 18:17 42.48231 5.23590 35901 ft 512 kts 26°
2026-05-05 18:18 42.54399 5.28334 35928 ft 513 kts 26°
2026-05-05 18:18 42.60620 5.33145 35923 ft 513 kts 26°
2026-05-05 18:19 42.66751 5.37981 35896 ft 509 kts 31°
2026-05-05 18:19 42.72248 5.44149 35910 ft 516 kts 41°
2026-05-05 18:20 42.77556 5.50748 35919 ft 517 kts 41°
2026-05-05 18:20 42.82865 5.57365 35917 ft 517 kts 41°
2026-05-05 18:21 42.88169 5.63999 35933 ft 517 kts 41°
2026-05-05 18:21 42.93430 5.70589 35934 ft 516 kts 41°
2026-05-05 18:22 42.98613 5.77409 35919 ft 516 kts 50°
2026-05-05 18:22 43.02494 5.85608 35932 ft 513 kts 68°
2026-05-05 18:23 43.04977 5.94645 35935 ft 510 kts 73°
2026-05-05 18:23 43.07373 6.03797 35974 ft 510 kts 73°
2026-05-05 18:24 43.09765 6.12949 35917 ft 510 kts 73°
2026-05-05 18:24 43.12153 6.22108 35936 ft 510 kts 73°
2026-05-05 18:25 43.14520 6.31208 35940 ft 510 kts 73°
2026-05-05 18:25 43.16873 6.40334 35940 ft 508 kts 74°
2026-05-05 18:26 43.19206 6.49444 35919 ft 510 kts 73°
2026-05-05 18:26 43.21672 6.58563 35933 ft 512 kts 66°
2026-05-05 18:27 43.25477 6.66833 35936 ft 514 kts 54°
2026-05-05 18:27 43.29697 6.74777 35935 ft 514 kts 54°
2026-05-05 18:28 43.35979 6.86732 35909 ft 514 kts 54°
2026-05-05 18:28 43.40137 6.94673 35924 ft 514 kts 54°
2026-05-05 18:29 43.44321 7.02671 35960 ft 514 kts 54°
2026-05-05 18:29 43.48479 7.10622 35951 ft 513 kts 54°
2026-05-05 18:30 43.52655 7.18624 35947 ft 513 kts 54°
2026-05-05 18:30 43.56794 7.26596 35944 ft 513 kts 55°
2026-05-05 18:31 43.60951 7.34625 35967 ft 513 kts 55°
2026-05-05 18:31 43.65103 7.42670 35960 ft 513 kts 55°
2026-05-05 18:32 43.69218 7.50652 35962 ft 513 kts 55°
2026-05-05 18:32 43.73348 7.58703 35939 ft 513 kts 55°
2026-05-05 18:33 43.77471 7.66757 35941 ft 512 kts 55°
2026-05-05 18:33 43.81758 7.74642 35951 ft 511 kts 46°
2026-05-05 18:34 43.87084 7.81019 35958 ft 508 kts 35°
2026-05-05 18:34 43.92564 7.87265 35965 ft 510 kts 45°
2026-05-05 18:35 43.96796 7.95135 35979 ft 509 kts 63°
2026-05-05 18:35 43.99770 8.03991 35932 ft 509 kts 68°
2026-05-05 18:36 44.02694 8.13006 35949 ft 512 kts 67°
2026-05-05 18:36 44.05594 8.22014 35948 ft 512 kts 68°
2026-05-05 18:37 44.08358 8.31166 35949 ft 513 kts 70°
2026-05-05 18:37 44.10964 8.40416 35927 ft 513 kts 71°
2026-05-05 18:38 44.13529 8.49548 34938 ft 509 kts 71°
2026-05-05 18:38 44.14863 8.54251 33395 ft 530 kts 71°
2026-05-05 18:38 44.16241 8.59077 32260 ft 538 kts 71°
2026-05-05 18:39 44.17831 8.63776 31516 ft 537 kts 58°
2026-05-05 18:39 44.20157 8.67729 30895 ft 530 kts 40°
2026-05-05 18:39 44.23071 8.70710 29955 ft 513 kts 23°
2026-05-05 18:39 44.26369 8.72403 29173 ft 497 kts
2026-05-05 18:40 44.29729 8.72949 28630 ft 479 kts 355°
2026-05-05 18:40 44.33048 8.73123 27984 ft 475 kts 355°
2026-05-05 18:40 44.36342 8.73279 27350 ft 470 kts 355°
2026-05-05 18:40 44.39588 8.73420 26726 ft 465 kts 355°
2026-05-05 18:41 44.42785 8.73551 26121 ft 461 kts 356°
2026-05-05 18:41 44.45988 8.73682 25539 ft 457 kts 356°
2026-05-05 18:41 44.49160 8.73816 24969 ft 453 kts 356°
2026-05-05 18:41 44.52296 8.73948 24391 ft 449 kts 356°
2026-05-05 18:42 44.55409 8.74080 23811 ft 445 kts 357°
2026-05-05 18:42 44.58489 8.74210 23120 ft 442 kts 357°
2026-05-05 18:42 44.61551 8.74341 22473 ft 436 kts 358°
2026-05-05 18:42 44.64574 8.74470 21801 ft 431 kts 358°
2026-05-05 18:43 44.67495 8.74590 21567 ft 416 kts 355°
2026-05-05 18:43 44.70282 8.74194 21429 ft 391 kts 341°
2026-05-05 18:43 44.72802 8.73064 21255 ft 372 kts 333°
2026-05-05 18:43 44.75213 8.71812 20886 ft 366 kts 333°
2026-05-05 18:44 44.77595 8.70581 20445 ft 362 kts 334°
2026-05-05 18:44 44.79957 8.69360 20001 ft 359 kts 334°
2026-05-05 18:44 44.82268 8.68164 19545 ft 357 kts 334°
2026-05-05 18:44 44.84594 8.66960 19097 ft 354 kts 334°
2026-05-05 18:45 44.86896 8.65767 18679 ft 351 kts 334°
2026-05-05 18:45 44.89182 8.64582 18259 ft 349 kts 334°
2026-05-05 18:45 44.91455 8.63402 17777 ft 346 kts 334°
2026-05-05 18:45 44.93706 8.62230 17309 ft 343 kts 334°
2026-05-05 18:46 44.95942 8.61064 16861 ft 340 kts 334°
2026-05-05 18:46 44.98125 8.59927 16422 ft 337 kts 334°
2026-05-05 18:46 45.00350 8.58842 15988 ft 337 kts 342°
2026-05-05 18:46 45.01871 8.58393 15706 ft 336 kts 344°
2026-05-05 18:47 45.04163 8.57756 15277 ft 334 kts 345°
2026-05-05 18:47 45.07170 8.56933 14726 ft 330 kts 345°
2026-05-05 18:47 45.08665 8.56523 14459 ft 328 kts 345°
2026-05-05 18:47 45.10900 8.55910 14059 ft 325 kts 345°
2026-05-05 18:48 45.13119 8.55297 13654 ft 323 kts 345°
2026-05-05 18:48 45.15312 8.54689 13220 ft 320 kts 345°
2026-05-05 18:48 45.17494 8.54083 12909 ft 313 kts 345°
2026-05-05 18:48 45.19564 8.53510 12785 ft 301 kts 345°
2026-05-05 18:49 45.21595 8.52946 12522 ft 294 kts 345°
2026-05-05 18:49 45.23594 8.52387 12156 ft 292 kts 345°
2026-05-05 18:49 45.25580 8.51833 11783 ft 290 kts 346°
2026-05-05 18:49 45.27551 8.51283 11425 ft 288 kts 346°
2026-05-05 18:50 45.29517 8.50748 11039 ft 286 kts 349°
2026-05-05 18:50 45.31482 8.50990 10668 ft 287 kts 22°
2026-05-05 18:50 45.33040 8.52680 10282 ft 284 kts 57°
2026-05-05 18:50 45.33774 8.55238 9851 ft 280 kts 78°
2026-05-05 18:51 45.34169 8.57926 9392 ft 280 kts 82°
2026-05-05 18:51 45.34487 8.60652 8983 ft 278 kts 83°
2026-05-05 18:51 45.34482 8.63337 8677 ft 265 kts 109°
2026-05-05 18:51 45.33621 8.65544 8406 ft 251 kts 138°
2026-05-05 18:52 45.32182 8.66826 8045 ft 242 kts 166°
2026-05-05 18:52 45.30540 8.67325 7655 ft 241 kts 171°
2026-05-05 18:52 45.28914 8.67768 7302 ft 240 kts 171°
2026-05-05 18:52 45.27280 8.68210 6947 ft 239 kts 171°
2026-05-05 18:53 45.25650 8.68653 6586 ft 238 kts 171°
2026-05-05 18:53 45.24024 8.69095 6234 ft 237 kts 170°
2026-05-05 18:53 45.22410 8.69534 5939 ft 233 kts 170°
2026-05-05 18:53 45.20832 8.69964 5884 ft 231 kts 170°
2026-05-05 18:54 45.19254 8.70399 5742 ft 228 kts 170°
2026-05-05 18:54 45.17706 8.70828 5625 ft 225 kts 170°
2026-05-05 18:54 45.16174 8.71251 5491 ft 224 kts 170°
2026-05-05 18:54 45.14662 8.71669 5374 ft 223 kts 170°
2026-05-05 18:55 45.13136 8.72090 5284 ft 223 kts 170°
2026-05-05 18:55 45.11605 8.72510 5116 ft 223 kts 170°
2026-05-05 18:55 45.10080 8.72926 4957 ft 222 kts 169°
2026-05-05 18:55 45.08567 8.73339 4913 ft 221 kts 169°
2026-05-05 18:56 45.07074 8.73747 4864 ft 222 kts 170°
2026-05-05 18:56 45.05556 8.74158 4815 ft 222 kts 170°
2026-05-05 18:56 45.04066 8.74705 4766 ft 221 kts 153°
2026-05-05 18:56 45.02984 8.76217 4709 ft 224 kts 117°
2026-05-05 18:57 45.02758 8.78387 4670 ft 230 kts 83°
2026-05-05 18:57 45.03053 8.80616 4614 ft 231 kts 81°
2026-05-05 18:57 45.03360 8.82815 4579 ft 220 kts 81°
2026-05-05 18:57 45.03652 8.84873 4510 ft 214 kts 82°
2026-05-05 18:58 45.04229 8.86812 4465 ft 218 kts 52°
2026-05-05 18:58 45.05448 8.88050 4410 ft 219 kts 18°
2026-05-05 18:58 45.06943 8.88183 4368 ft 217 kts 348°
2026-05-05 18:58 45.08426 8.87777 4315 ft 217 kts 347°
2026-05-05 18:59 45.09912 8.87363 4270 ft 217 kts 347°
2026-05-05 18:59 45.11395 8.86953 4222 ft 217 kts 347°
2026-05-05 18:59 45.12856 8.86553 4172 ft 216 kts 347°
2026-05-05 18:59 45.14339 8.86149 4136 ft 215 kts 348°
2026-05-05 19:00 45.15802 8.85749 4077 ft 213 kts 348°
2026-05-05 19:00 45.17262 8.85350 4033 ft 210 kts 348°
2026-05-05 19:00 45.18639 8.84978 3989 ft 192 kts 348°
2026-05-05 19:00 45.19901 8.84636 3957 ft 176 kts 348°
2026-05-05 19:01 45.21060 8.84321 4006 ft 170 kts 348°
2026-05-05 19:01 45.22218 8.84004 4005 ft 169 kts 348°
2026-05-05 19:01 45.23374 8.83689 4005 ft 169 kts 348°
2026-05-05 19:01 45.24616 8.83353 4039 ft 191 kts 349°
2026-05-05 19:02 45.25960 8.83279 4035 ft 194 kts 358°
2026-05-05 19:02 45.27304 8.83092 4031 ft 194 kts 351°
2026-05-05 19:02 45.28639 8.82772 4030 ft 194 kts 349°
2026-05-05 19:02 45.29969 8.82419 4030 ft 194 kts 349°
2026-05-05 19:03 45.31299 8.82058 4031 ft 195 kts 348°
2026-05-05 19:03 45.32635 8.81694 4032 ft 195 kts 348°
2026-05-05 19:03 45.33947 8.81335 4031 ft 195 kts 348°
2026-05-05 19:03 45.35278 8.80972 4033 ft 194 kts 348°
2026-05-05 19:04 45.36605 8.80609 4032 ft 194 kts 348°
2026-05-05 19:04 45.37939 8.80244 3969 ft 195 kts 349°
2026-05-05 19:04 45.39272 8.79879 3870 ft 193 kts 349°
2026-05-05 19:04 45.40581 8.79521 3765 ft 193 kts 349°
2026-05-05 19:05 45.41904 8.79159 3653 ft 193 kts 349°
2026-05-05 19:05 45.43221 8.78797 3554 ft 192 kts 349°
2026-05-05 19:05 45.44536 8.78437 3427 ft 192 kts 349°
2026-05-05 19:05 45.45846 8.78078 3326 ft 191 kts 350°
2026-05-05 19:06 45.47152 8.77719 3233 ft 191 kts 349°
2026-05-05 19:06 45.48453 8.77362 3136 ft 189 kts 350°
2026-05-05 19:06 45.49752 8.77005 3045 ft 188 kts 350°
2026-05-05 19:06 45.51024 8.76655 2841 ft 184 kts 350°
2026-05-05 19:07 45.52280 8.76310 2610 ft 182 kts 350°
2026-05-05 19:07 45.53482 8.75979 2377 ft 175 kts 350°
2026-05-05 19:07 45.54659 8.75655 2139 ft 165 kts 351°
2026-05-05 19:07 45.55735 8.75358 1919 ft 151 kts 351°
2026-05-05 19:08 45.56751 8.75079 1727 ft 146 kts 351°
2026-05-05 19:08 45.57738 8.74809 1521 ft 142 kts 351°
2026-05-05 19:08 45.58698 8.74545 1325 ft 139 kts 349°
2026-05-05 19:08 45.59646 8.74295 1160 ft 137 kts 349°
2026-05-05 19:09 45.60585 8.74021 1012 ft 137 kts 349°
2026-05-05 19:09 45.61508 8.73776 840 ft 136 kts 348°
2026-05-05 19:09 45.62429 8.73516 764 ft 129 kts 348°
2026-05-05 19:09 45.63184 8.73314 757 ft 86 kts 353°
2026-05-05 19:10 45.63601 8.73173 761 ft 43 kts 335°
2026-05-05 19:10 45.63758 8.73012 757 ft 20 kts 316°
2026-05-05 19:10 45.63829 8.72891 754 ft 10 kts 304°
2026-05-05 19:10 45.63857 8.72826 756 ft 7 kts 301°
2026-05-05 19:11 45.63882 8.72770 757 ft 7 kts 304°
2026-05-05 19:11 45.63920 8.72663 758 ft 13 kts 277°
2026-05-05 19:11 45.63858 8.72595 759 ft 12 kts 174°
2026-05-05 19:11 45.63776 8.72612 759 ft 12 kts 166°
2026-05-05 19:12 45.63693 8.72644 757 ft 13 kts 164°
2026-05-05 19:12 45.63612 8.72666 758 ft 11 kts 171°
2026-05-05 19:12 45.63536 8.72685 759 ft 11 kts 169°
2026-05-05 19:12 45.63467 8.72696 757 ft 10 kts 182°
2026-05-05 19:13 45.63417 8.72649 755 ft 8 kts 239°
2026-05-05 19:13 45.63401 8.72572 755 ft 8 kts 257°
2026-05-05 19:13 45.63389 8.72474 755 ft 13 kts 261°
2026-05-05 19:13 45.63373 8.72348 754 ft 13 kts 257°
2026-05-05 19:14 45.63353 8.72228 758 ft 12 kts 257°
2026-05-05 19:14 45.63337 8.72117 759 ft 11 kts 260°
2026-05-05 19:14 45.63331 8.72061 755 ft 0 kts 261°
2026-05-05 19:15 45.63330 8.72059 755 ft 0 kts 261°
2026-05-05 19:15 45.63322 8.72026 757 ft 7 kts 241°
2026-05-05 19:15 45.63283 8.71988 758 ft 7 kts 207°
2026-05-05 19:16 45.63242 8.71980 757 ft 6 kts 174°
2026-05-05 19:16 45.63207 8.71989 757 ft 5 kts 167°
2026-05-05 19:16 45.63167 8.72001 758 ft 8 kts 169°
2026-05-05 19:16 45.63115 8.72013 759 ft 8 kts 171°
2026-05-05 19:17 45.63049 8.72032 757 ft 12 kts 168°
2026-05-05 19:17 45.62972 8.72055 759 ft 11 kts 169°
2026-05-05 19:17 45.62891 8.72077 758 ft 15 kts 169°
2026-05-05 19:17 45.62774 8.72110 758 ft 17 kts 168°
2026-05-05 19:18 45.62689 8.72070 758 ft 12 kts 240°
2026-05-05 19:18 45.62669 8.71961 755 ft 12 kts 258°
2026-05-05 19:18 45.62655 8.71848 756 ft 10 kts 260°
2026-05-05 19:18 45.62641 8.71741 759 ft 11 kts 258°
2026-05-05 19:19 45.62629 8.71654 759 ft 7 kts 259°
2026-05-05 19:19 45.62611 8.71604 757 ft 5 kts 212°
2026-05-05 19:19 45.62568 8.71602 757 ft 7 kts 172°
2026-05-05 19:19 45.62542 8.71608 758 ft 1 kts 170°
2026-05-05 19:20 45.62539 8.71609 757 ft 2 kts 170°
2026-05-05 19:20 45.62538 8.71609 757 ft 0 kts 170°
2026-05-05 19:25 45.62539 8.71609 759 ft 0 kts 170°